ARIANE 5 DEB (SYLDA), 41594

Orbit data source: Space-Track

ARIANE 5 DEB (SYLDA), 41594 is space debris in HEO originally from a launch on Sat, 18 Jun 2016 UTC launched from the French Guiana (FRGUI). Debris objects in space refer to the collection of defunct objects orbiting the Earth. Examples of debris include non-operational satellites, rocket bodies, and fragments generated from explosions, collisions, or faulty payload assembly.

Loading next visibility...
Identifier
41594, 2016-039D
Orbit
HEO
Country
Flag of FRFR
Related business
Manufacturer
ADS/Bremen
Mission
Spacecraft
Bus & Motor
SYLDA 5, Unknown motor
Mass
440 kg wet, 440 kg dry
Launch date (UTC)
2016-06-18 (10 years ago)
Launch vehicle
Unknown
Launch site
French Guiana (FRGUI)
Object type
Payload
Rocket body
Debris
Shape & HBR
Cyl, 2.8 m
Radar Cross Section
27.391 m², Large (>1 m²)

Expand to show TLE details & history
Last TLE update: 20 hours ago

TLE from 20 hours ago
0 ARIANE 5 DEB (SYLDA)
1 41594U 16039D   26125.54029695  .00001224  00000-0  12602-2 0  9990
2 41594   6.0305 319.4414 5689364 337.7920   5.0639  4.38954091114683
Epoch: 2026-05-05T12:58Z
TLE epoch observation values (Epoch: 2026-05-05T12:58:01.656Z)
Latitude
0.00017°
Longitude
-98.52931°
Altitude
607.231 km
Speed
9.424 km/s
True Right ascension
21h 17m 33s
True Declination
0° 00' 01"
Sunlit
Object was in daylight at epoch
Visualization orbit readout
Latitude
Unknown
Longitude
Unknown
Altitude
Unknown
Speed
Unknown
Apparent Right ascension
Unknown
Apparent Declination
Unknown
Sunlit
N/A
Visualization observer readout
Local Sidereal Time
16:34:09
Azimuth
Unknown
Elevation
Unknown
Doppler factor
Unknown
Orbital elements
Apogee altitude
18,350.354 km
Perigee altitude
415.99 km
Semi-major axis
15,761.309 km
Eccentricity
0.56894
Inclination
6.0305°
RAAN
319.4414°
Arg. of periapsis
337.792°
True anomaly
22.01237°
Mean anomaly
5.0639°
Eccentric anomaly
11.64194°
Mean motion
1.09687 °/min
Orbital period
328.21 mins
BSTAR
0.0012602
Loading maneuver chart data...
Computing Atmospheric mass density...
Loading historical data...
Loading historical data...
Loading historical data...
Loading historical data...
Loading historical data...
Loading historical data...
Loading historical data...
Other satellites on launch #39 in the year 2016 (2016-06-18 UTC)

Documentation

Showing up to 5 results
|